This is the latest recevied weather packets stored in our database for station/object N9CQL. If no packets are shown the sender has not sent any weather packets the latest 10 day(s).
| Time | Temp. | Humidity | Pressure | Rain* | Wind** | Luminosity | Snow |
|---|---|---|---|---|---|---|---|
| 1778090703 | 13.89° C | 41% | 1012.7 hPa | 0 mm | - | 246 W/m² | - |
| 1778090399 | 13.89° C | 40% | 1012.6 hPa | 0 mm | - | 302 W/m² | - |
| 1778090095 | 13.89° C | 41% | 1012.5 hPa | 0 mm | - | 323 W/m² | - |
| 1778089786 | 13.89° C | 41% | 1012.7 hPa | 0 mm | - | 302 W/m² | - |
| 1778089485 | 13.89° C | 41% | 1012.7 hPa | 0 mm | - | 340 W/m² | - |
| 1778089181 | 14.44° C | 42% | 1012.8 hPa | 0 mm | - | 261 W/m² | - |
| 1778088879 | 13.89° C | 41% | 1012.7 hPa | 0 mm | - | 419 W/m² | - |
| 1778088575 | 15° C | 41% | 1012.8 hPa | 0 mm | - | 334 W/m² | - |
| 1778088272 | 15° C | 38% | 1012.8 hPa | 0 mm | - | 488 W/m² | - |
| 1778087969 | 13.33° C | 40% | 1012.9 hPa | 0 mm | - | 563 W/m² | - |
| 1778087666 | 13.33° C | 40% | 1012.8 hPa | 0 mm | - | 239 W/m² | - |
| 1778087364 | 14.44° C | 38% | 1013 hPa | 0 mm | - | 468 W/m² | - |
| 1778087059 | 13.89° C | 40% | 1013 hPa | 0 mm | - | 881 W/m² | - |
| 1778086753 | 13.89° C | 41% | 1012.7 hPa | 0 mm | - | 235 W/m² | - |
| 1778086451 | 13.33° C | 42% | 1012.8 hPa | 0 mm | - | 730 W/m² | - |
| 1778086147 | 13.33° C | 39% | 1012.8 hPa | 0 mm | - | 196 W/m² | - |
| 1778085844 | 13.33° C | 39% | 1012.8 hPa | 0 mm | - | 339 W/m² | - |
| 1778085542 | 13.89° C | 41% | 1012.6 hPa | 0 mm | - | 484 W/m² | - |
| 1778085236 | 13.89° C | 38% | 1012.6 hPa | 0 mm | - | 538 W/m² | - |
| 1778084931 | 13.89° C | 38% | 1012.8 hPa | 0 mm | - | 637 W/m² | - |
| 1778084629 | 13.89° C | 42% | 1012.8 hPa | 0 mm | - | 437 W/m² | - |
| 1778084321 | 14.44° C | 37% | 1012.8 hPa | 0 mm | - | 740 W/m² | - |
| 1778084018 | 12.78° C | 44% | 1012.7 hPa | 0 mm | - | 686 W/m² | - |
| 1778083716 | 12.78° C | 39% | 1012.9 hPa | 0 mm | - | 483 W/m² | - |
| 1778083412 | 13.33° C | 39% | 1012.7 hPa | 0 mm | - | 385 W/m² | - |
* Rain latest hour (hover to see other rain measurements)
** Current wind speed in m/s (hover to see current wind gust speed)